Showing default

GONETS D1 1, 23787

Orbit data source: Space-Track

GONETS D1 1, 23787 is a payload satellite owned by Gonets (CIS) in LEO that was launched on Mon, 19 Feb 1996 UTC via a TSIKLON-3 launch vehicle from the Plesetsk Missile And Space Complex (PKMTR). Payload-class satellites include a variety of spacecraft equipped with specific instruments for various scientific and technological missions. These include communications satellites like Starlink; space stations such as the ISS; scientific satellites like the Hubble; Earth observation satellites from companies like Planet Labs, Umbra, and HawkEye 360; GPS; miniature CubeSats for education and research; and military/defense satellites.

Loading next visibility...
Identifier
23787, 1996-009A
Orbit
LEO
Last TLE update
11 hours ago
Origin
Manufacturer
NPO PM
Mission
Non-operational Civil Communications
Bus & Motor
STRELA-3, Unknown motor
Mass
225 kg wet, 225 kg dry
Launch date (UTC)
1996-02-19 (29 years ago)
Launch vehicle
TSIKLON-3
Launch site
Plesetsk Missile And Space Complex (PKMTR)
Object type
Payload
Rocket body
Debris
Shape & HBR
Cyl + 1 Ant, 7 m
Radar Cross Section
1.798 m², Medium (>0.1 m² and < 1m²)

Expand to show TLE details & history

TLE from 11 hours ago
0 GONETS D1 1
1 23787U 96009A   25189.87209786  .00000014  00000-0  19821-4 0  9993
2 23787  82.5771 158.7441 0012481 100.5120 319.7721 12.64096446355931
Epoch: 2025-07-08T20:55Z
TLE epoch observation values (Epoch: 2025-07-08T20:55:49.255Z)
Latitude
59.45284°
Longitude
-69.58228°
Altitude
1,408.71 km
Speed
7.165 km/s
True Right ascension
11h 25m 44s
True Declination
59° 18' 53"
Sunlit
Object was in daylight at epoch
Visualization orbit readout
Latitude
71.62008°
Longitude
-59.61283°
Altitude
1,409.714 km
Speed
7.166 km/s
Apparent Right ascension
09h 41m 57s
Apparent Declination
26° 17' 24"
Sunlit
Object is in daylight
Visualization observer readout
Local Sidereal Time
20:33:22
Azimuth
343.451° N
Elevation
-21.894°
Doppler factor
1
Orbital elements
Apogee altitude
1,413.112 km
Perigee altitude
1,393.688 km
Semi-major axis
7,781.537 km
Eccentricity
0.00125
Inclination
82.5771°
RAAN
158.7441°
Arg. of periapsis
100.512°
True anomaly
Unknown
Mean anomaly
319.7721°
Eccentric anomaly
Unknown
Mean motion
3.16188 °/min
Orbital period
113.86 mins
BSTAR
0.000019821
Loading maneuver chart data...
Loading SW <> Apogee altitude chart data...
Loading historical data...
Loading historical data...
Loading historical data...
Loading historical data...
Loading historical data...
Loading historical data...
Loading historical data...

GONETS D1 1 Visibility forecast

Observer location: undefined°, undefined°

Span
Click to sort rows by Start time (UTC) header in descending order
Start Az.
Max El. time (UTC)
Max El. Az.
Max El.
End time (UTC)
End Az.
14 mins2025-07-09 08:36:43.267Z10.701° NNE2025-07-09 08:43:43.267Z70.614° E28.007°2025-07-09 08:50:43.267Z130.949° SE
14 mins2025-07-09 10:32:43.267Z338.316° N2025-07-09 10:38:43.267Z273.502° WNW38.185°2025-07-09 10:46:43.267Z197.45° SSW
12 mins2025-07-09 21:25:43.267Z135.098° SSE2025-07-09 21:30:43.267Z89.837° E27.342°2025-07-09 21:37:43.267Z28.279° NE
14 mins2025-07-09 23:18:43.267Z210.592° SW2025-07-09 23:25:43.267Z286.66° WNW38.357°2025-07-09 23:32:43.267Z356.396° N
|